Regional Weather Roundup
Issued by NWS

Home | Current Version | Previous Version | Graphics & Text | Print | Product List | Glossary On
Versions: 1 2 3 4 5 6 7 8 9 10 11 12 13 14 15 16 17 18 19 20 21 22 23 24 25 26 27 28 29 30 31 32 33 34 35 36 37 38 39 40 41 42 43 44 45 46 47 48 49 50
000
ASUS45 KPSR 230010
RWRAZ

ARIZONA REGIONAL HOURLY WEATHER ROUNDUP
NATIONAL WEATHER SERVICE PHOENIX AZ
500 PM MST WED OCT 22 2014

NOTE: FAIR INDICATES FEW OR NO CLOUDS BELOW 12,000 FEET WITH NO
SIGNIFICANT WEATHER AND/OR OBSTRUCTIONS TO VISIBILITY.

AZZ001>003-036-230100-
NORTHWEST ARIZONA

CITY           SKY/WX    TMP DP  RH WIND       PRES   REMARKS
BULLHEAD CITY  CLEAR     90  39  17 CALM      29.90S
KINGMAN        CLEAR     78  36  21 SW8       30.05S
6HR MIN TEMP:  76; 6HR MAX TEMP:  81;

$$

AZZ004>008-015-016-018-230100-
NORTH CENTRAL ARIZONA

CITY           SKY/WX    TMP DP  RH WIND       PRES   REMARKS
GRAND CANYON   PTCLDY    65  31  28 NW3       30.22S
6HR MIN TEMP:  62; 6HR MAX TEMP:  67;

PRESCOTT       PTCLDY    74  38  27 NE3       30.13S
6HR MIN TEMP:  68; 6HR MAX TEMP:  76;

FLAGSTAFF      CLEAR     62  35  36 S10       30.24R
6HR MIN TEMP:  60; 6HR MAX TEMP:  66;

PAYSON         CLEAR     72  43  35 SW6       30.16F
PAGE           CLEAR     76  36  23 NE5       30.07S
6HR MIN TEMP:  68; 6HR MAX TEMP:  78;

$$

AZZ009>014-017-230100-
NORTHEAST ARIZONA

CITY           SKY/WX    TMP DP  RH WIND       PRES   REMARKS
WINSLOW        CLEAR     74  37  26 E5        30.10F
6HR MIN TEMP:  68; 6HR MAX TEMP:  77;

SAINT JOHNS    CLEAR     71  39  31 NW10      30.14S
6HR MIN TEMP:  66; 6HR MAX TEMP:  73;

WINDOW ROCK    CLEAR     67  28  23 W7        30.21R
6HR MIN TEMP:  64; 6HR MAX TEMP:  71;

SHOW LOW       CLEAR     64  36  34 SW9       30.22S
$$

AZZ023-230100-
GREATER PHOENIX AREA

CITY           SKY/WX    TMP DP  RH WIND       PRES   REMARKS
PHOENIX        PTCLDY    90  46  21 MISG      29.88F
6HR MIN TEMP:  83; 6HR MAX TEMP:  93;

BUCKEYE          N/A     86  48  26 SE6       29.90S
GLENDALE       PTCLDY    90  48  24 CALM      29.91S
LUKE AFB       CLEAR     89  47  23 CALM      29.89S
6HR MIN TEMP:  81; 6HR MAX TEMP:  89;

DEER VALLEY    CLEAR     87  46  24 CALM      29.91S
6HR MIN TEMP:  82; 6HR MAX TEMP:  88;

SCOTTSDALE     CLEAR     87  46  24 SW3       29.92F
6HR MIN TEMP:  82; 6HR MAX TEMP:  89;

MESA-GATEWAY   PTCLDY    88  46  23 CALM      29.93S
CHANDLER       PTCLDY    88  48  25 VRB5      29.91S
$$

AZZ027-028-230100-
SOUTHWEST MARICOPA COUNTY AND PINAL COUNTY

CITY           SKY/WX    TMP DP  RH WIND       PRES   REMARKS
CASA GRANDE    CLEAR     88  48  25 CALM      29.92S
6HR MIN TEMP:  79; 6HR MAX TEMP:  88;

GILA BEND      CLEAR     90  42  18 N7        29.90S
6HR MIN TEMP:  89; 6HR MAX TEMP:  93;

$$

AZZ503-504-507>509-230100-
SOUTHEAST ARIZONA

CITY           SKY/WX    TMP DP  RH WIND       PRES   REMARKS
TUCSON         CLEAR     87  42  20 N3        29.97F
6HR MIN TEMP:  80; 6HR MAX TEMP:  89;

DAVIS-MONTHAN  CLEAR     84  46  25 NW5       29.97S
6HR MIN TEMP:  81; 6HR MAX TEMP:  86;

RYAN FIELD       N/A     88  48  25 NW9       29.96F
NOGALES        CLEAR     80  42  25 VRB6      30.04R
SIERRA VISTA   PTCLDY    75  39  27 N6        30.10R
DOUGLAS        CLEAR     78  44  29 S5        30.07R
6HR MIN TEMP:  73; 6HR MAX TEMP:  82;

SAFFORD        CLEAR     80  48  32 SW5       30.00F
6HR MIN TEMP:  74; 6HR MAX TEMP:  82;

$$

AZZ020-021-025-026-031-230100-
SOUTHWEST ARIZONA

CITY           SKY/WX    TMP DP  RH WIND       PRES   REMARKS
YUMA           MOSUNNY   94  38  14 CALM      29.84S
6HR MIN TEMP:  88; 6HR MAX TEMP:  97;

$$

CAZ031-033-041-043-047-048-061-230100-
SOUTHERN CALIFORNIA

CITY           SKY/WX    TMP DP  RH WIND       PRES   REMARKS
DOWNTOWN L.A.  SUNNY     77  55  46 VRB5      29.88F
6HR MIN TEMP:  76; 6HR MAX TEMP:  84;

L.A. AIRPORT   MOSUNNY   72  65  78 W13       29.89F
SAN DIEGO      PTSUNNY   75  62  64 W7        29.91S
6HR MIN TEMP:  74; 6HR MAX TEMP:  79;

BURBANK        SUNNY     82  48  30 S7        29.89S
6HR MIN TEMP:  74; 6HR MAX TEMP:  88;

ONTARIO        PTSUNNY   86  48  26 W12       29.89S
6HR MIN TEMP:  74; 6HR MAX TEMP:  89;

RIVERSIDE      SUNNY     85  51  31 W9        29.89S
6HR MIN TEMP:  77; 6HR MAX TEMP:  90;

PALM SPRINGS   MOSUNNY   93  28  10 E5        29.88S
6HR MIN TEMP:  87; 6HR MAX TEMP:  95;

EL CENTRO NAS  MOSUNNY   93  47  20 CALM      29.83F
6HR MIN TEMP:  85; 6HR MAX TEMP:  95;

IMPERIAL       SUNNY     93  47  20 NE5       29.83S
6HR MIN TEMP:  83; 6HR MAX TEMP:  94;

BLYTHE         SUNNY     92  43  18 W5        29.86F
6HR MIN TEMP:  82; 6HR MAX TEMP:  94;

NEEDLES        CLEAR     91  42  18 E6        29.90S
6HR MIN TEMP:  82; 6HR MAX TEMP:  92;

$$

NVZ020-UTZ003-230100-
SOUTHERN NEVADA-UTAH

CITY           SKY/WX    TMP DP  RH WIND       PRES   REMARKS
LAS VEGAS      PTCLDY    83  27  13 CALM      29.95F
6HR MIN TEMP:  75; 6HR MAX TEMP:  84;

SALT LAKE CITY MOCLDY    60  31  33 N9        30.14F
6HR MIN TEMP:  55; 6HR MAX TEMP:  63;

$$

NMZ009-TXZ055-230100-
NEW MEXICO-WEST TEXAS

CITY           SKY/WX    TMP DP  RH WIND       PRES   REMARKS
ALBUQUERQUE    PTCLDY    72  37  28 W3        30.13S
6HR MIN TEMP:  63; 6HR MAX TEMP:  73;

EL PASO        PTCLDY    75  53  46 N6        30.07S
6HR MIN TEMP:  68; 6HR MAX TEMP:  77;

$$


........................KEY........................
SKY/WX - SKY CONDITION/WEATHER
TMP    - TEMPERATURE IN FAHRENHEIT
DP     - DEW POINT IN FAHRENHEIT
RH     - RELATIVE HUMIDITY IN PERCENT
WIND   - DIRECTION AND SPEED IN MILES PER HOUR (MPH)
VRB    - VARIABLE WIND DIRECTION
PRES   - MEAN SEA LEVEL PRESSURE IN INCHES OF MERCURY
         F - FALLING PRESSURE   R - RISING PRESSURE
         S - STEADY PRESSURE
VSB    - VISIBILITY IN MILES
HX     - HEAT INDEX IN FAHRENHEIT
WCI    - WIND CHILL INDEX IN FAHRENHEIT
TC     - TEMPERATURE IN CELSIUS WHICH IS ALSO KNOWN AS
         TEMPERATURE IN CENTIGRADE
AFB    - AIR FORCE BASE
         LUKE AFB IS LUKE AIR FORCE BASE
         DAVIS-MONTHAN IS DAVIS-MONTHAN AIR FORCE BASE
NAS    - NAVAL AIR STATION
         EL CENTRO NAS IS EL CENTRO NAVAL AIR STATION
N/A    - NOT AVAILABLE



USA.gov is the U.S. government's official web portal to all federal, state and local government web resources and services.